Location: Montreal
(45.5000°N, 73.5833°W)
Time: 23:30:37
(UTC-04:00)

Tiangong 1 - Pass Details

Date: 15 October 2017
Orbit: 293 x 320 km, 42.8° (Epoch: 19 October)

Event Time Altitude Azimuth Distance (km) Brightness Sun altitude
Rises 18:40:41 0° 271° (W) 2,049 7.2 -6.4°
Reaches altitude 10° 18:42:51 10° 257° (WSW) 1,213 5.3 -6.8°
Maximum altitude 18:45:10 25° 198° (SSW) 683 2.6 -7.2°
Drops below altitude 10° 18:47:27 10° 140° (SE) 1,197 3.2 -7.6°
Enters shadow 18:48:34 - 131° (SE) 1,611 3.8 -7.8°
